Location: La Tine
(46.4708°N, 7.0525°E)
Time: 02:39:45
(UTC+00:00)

ERS-1 Rocket - Pass Details

Date: 18 September 2020
Orbit: 753 x 757 km, 98.5° (Epoch: 29 October)

Event Time Altitude Azimuth Distance (km) Brightness Sun altitude
Exits shadow 20:57:22 36° 359° (N) 1,187 4.2 -32.1°
Drops below altitude 10° 21:00:21 10° 350° (N) 2,294 6.1 -32.5°
Sets 21:02:40 0° 348° (NNW) 3,225 7.0 -32.7°
